Regional Weather Roundup
Issued by NWS

Home | Current Version | Previous Version | Text Only | Print | Product List | Glossary On
Versions: 1 2 3 4 5 6 7 8 9 10 11 12 13 14 15 16 17 18 19 20 21 22 23 24 25 26 27 28 29 30 31 32 33 34 35 36 37 38 39 40 41 42 43 44 45 46 47 48 49 50
000
ASUS46 KSTO 260515
RWRCA

NORTHERN AND CENTRAL CA REGIONAL WEATHER ROUNDUP
NATIONAL WEATHER SERVICE SACRAMENTO CA
1000 PM PDT TUE JUL 25 2017

NOTE: FAIR INDICATES FEW OR NO CLOUDS BELOW 12,000 FEET WITH NO
SIGNIFICANT WEATHER AND/OR OBSTRUCTIONS TO VISIBILITY.

CAZ001-003-260600-
NORTHWEST AREA

CITY           SKY/WX    TMP DP  RH WIND       PRES   REMARKS
CRESCENT CITY  CLOUDY    53  52  96 CALM      30.02R
UKIAH          CLEAR     72  52  49 SE3       29.97R
$$

CAZ006-505>513-260600-
BAY AREA

CITY           SKY/WX    TMP DP  RH WIND       PRES   REMARKS
SANTA ROSA     CLEAR     58  54  86 SE3       29.99R
SAN RAFAEL     N/A       65  MM  MM MISG
NAPA           CLEAR     65  55  70 W6        29.98R
CONCORD        CLEAR     66  55  67 W7        29.97R
OAKLAND CITY   N/A      MM  MM  MM MISG
OAKLAND        PTCLDY    60  57  89 NW8       29.99R
SAN FRAN CITY  N/A       59  MM  82 MISG
SAN FRAN ARPT  PTCLDY    67  54  63 NW8       29.98R
LIVERMORE      CLEAR     65  55  70 NW8       29.96R
HAYWARD        CLEAR     64  53  67 N8        29.98R
REDWOOD CITY   N/A       63  MM  76 MISG
MOFFETT ARPT   CLEAR     64  58  80 N8        29.99R
SAN JOSE ARPT  PTCLDY    65  57  75 NW7       29.99R
$$
CAZ034-037-514>518-260600-
CENTRAL COAST

CITY           SKY/WX    TMP DP  RH WIND       PRES   REMARKS
WATSONVILLE    CLOUDY    59  57  93 W3        30.02R
SALINAS        CLOUDY    61  56  83 NW9       30.00R
MONTEREY       CLEAR     58  54  86 E9        30.01R
SAN LUIS OBISP CLEAR     61  55  81 NW9       30.00R
SANTA MARIA    CLEAR     60  57  89 VRB7      30.01R
$$
CAZ015-016-260600-
NORTHERN SACRAMENTO VALLEY

CITY           SKY/WX    TMP DP  RH WIND       PRES   REMARKS
REDDING        PTCLDY    85  51  31 S6        29.88R
RED BLUFF      CLEAR     80  57  45 S5        29.89R
OROVILLE       CLEAR     82  54  37 SE3       29.90R
$$
CAZ016>018-260600-
SOUTHERN SACRAMENTO VALLEY

CITY           SKY/WX    TMP DP  RH WIND       PRES   REMARKS
AUBURN         CLEAR     72  48  43 CALM      29.98R
BEALE AFB      CLEAR     78  54  43 E8        29.88R
LINCOLN        FAIR      77  43  29 SE7       29.89R
MARYSVILLE     CLEAR     78  53  41 S7        29.89R
SAC INTL ARPT  CLEAR     73  58  59 S9        29.88R
MATHER AIRPORT PTCLDY    72  55  56 S7        29.90R
DOWNTOWN SAC   N/A       72  MM  MM MISG
SAC EXEC ARPT  CLEAR     69  57  65 S7        29.91R
VACAVILLE      CLEAR     75  56  51 SW9       29.92R
TRAVIS AFB     CLEAR     67  55  66 W20       29.90R
$$
CAZ019>021-260600-
SAN JOAQUIN VALLEY

CITY           SKY/WX    TMP DP  RH WIND       PRES   REMARKS
STOCKTON       CLEAR     73  57  57 NW10      29.92R
MODESTO        CLEAR     78  57  48 NW12      29.90R
MERCED         CLEAR     82  56  40 NW14      29.89R
LEMOORE        CLEAR     83  34  17 W14       29.89R
FRESNO         CLEAR     88  55  32 NW10      29.89R
HANFORD        CLEAR     85  38  18 W7        29.89R
PORTERVILLE      N/A     82  58  43 W6        29.91R
BAKERSFIELD    CLEAR     86  53  32 N13       29.90R
$$
CAZ011-012-071-260600-
NORTHERN MOUNTAINS

CITY           SKY/WX    TMP DP  RH WIND       PRES   REMARKS
YREKA          PTCLDY    76  48  37 NE9       30.03R
MOUNT SHASTA   PTCLDY    68  50  52 NE3       30.08R
ALTURAS        MOCLDY    62  55  77 NE6       30.18S
$$
CAZ011-012-071-260600-
SIERRA NEVADA MTNS

CITY           SKY/WX    TMP DP  RH WIND       PRES   REMARKS
TRUCKEE        CLOUDY    61  43  51 SW3       30.25R
TAHOE VLY ARPT CLEAR     62  48  60 CALM      30.25R
MAMMOTH LAKES  FAIR      64  41  44 W9G20     30.31R
$$




USA.gov is the U.S. government's official web portal to all federal, state and local government web resources and services.